Theta_e
305 304 306 308 309 309 310 311 311 308 306 306 306 304 303 302 302 301 302 304 303 303 303 302 303 307 306 309 311 314 321 328 332 334 334 332 333 331 332 333 332 331 332 330 329
310 310 310 310 311 312 312 313 313 314 313 312 312 312 312 309 304 303 304 304 303 302 301 304 306 306 306 307 309 312 314 318 321 324 326 326 326 329 331 331 330 331 329 325 325
313 314 314 314 314 314 314 314 314 314 314 314 314 314 314 309 305 304 303 303 303 302 301 304 305 305 306 307 308 311 313 314 315 315 316 317 320 323 328 331 330 331 330 328 325
310 310 311 312 313 314 314 314 314 314 314 314 314 315 314 307 310 304 303 304 303 302 301 304 305 306 308 309 308 309 310 311 313 313 312 315 317 320 322 327 327 328 329 329 324
298 298 299 300 302 304 307 310 314 314 314 314 314 314 314 306 307 311 310 305 302 302 303 305 305 306 308 309 308 309 309 309 309 309 310 311 313 315 316 320 322 322 323 324 322
297 298 298 298 299 299 299 299 299 304 312 314 314 314 310 307 313 311 310 304 301 301 303 304 305 306 306 308 309 309 310 311 310 309 310 311 312 311 312 313 315 316 316 316 316
297 297 297 297 298 299 299 299 299 299 299 307 313 312 307 310 314 313 309 305 301 300 303 303 304 305 307 308 308 309 310 311 310 311 312 312 313 314 313 312 313 314 315 315 315
295 294 294 295 296 298 298 299 299 298 298 300 309 309 308 308 311 311 307 302 300 300 301 303 303 304 305 307 308 310 310 311 312 312 311 312 313 315 316 316 315 314 315 317 317
291 291 292 292 294 296 297 297 298 298 300 303 306 307 307 306 308 307 302 300 299 299 300 300 303 304 305 307 307 308 308 310 311 313 313 313 314 314 316 316 317 316 317 316 316
289 289 290 290 293 294 296 298 300 304 306 306 303 304 304 305 303 303 300 299 300 300 300 301 302 305 306 308 308 308 308 309 310 311 312 312 313 312 312 313 313 313 314 314 315
289 289 290 290 292 292 294 298 300 305 301 306 307 303 305 303 301 299 298 299 300 301 303 302 303 307 307 307 307 308 308 308 309 310 309 310 311 311 311 311 313 312 312 312 313
289 289 289 290 292 292 295 297 294 293 295 298 300 301 302 303 304 306 301 301 302 305 306 306 305 309 310 309 307 307 308 309 309 308 308 308 308 309 309 310 310 310 310 310 310
290 289 288 290 291 293 295 293 293 294 297 300 302 303 301 302 306 306 304 305 308 308 310 309 310 310 309 310 307 308 309 310 310 310 308 307 308 310 309 310 309 309 309 309 309
289 289 288 289 292 293 293 291 292 295 300 303 304 297 295 296 305 301 303 306 306 306 307 308 310 309 311 309 309 308 309 309 309 308 308 308 308 311 311 310 311 311 310 309 309
288 288 288 288 292 290 291 291 292 296 304 300 297 295 294 296 298 301 299 303 306 307 305 309 307 306 307 311 307 307 307 308 307 307 308 308 305 310 310 309 310 310 310 309 309
288 288 288 290 290 288 289 292 297 301 304 294 293 293 294 297 298 298 298 300 302 302 304 307 305 303 306 308 308 306 305 303 304 305 309 308 309 311 312 314 314 313 310 309 309
287 288 288 290 289 288 290 296 301 299 292 293 292 292 293 295 295 296 298 301 302 306 307 307 308 304 300 302 302 306 305 308 308 307 308 310 309 310 312 310 310 310 310 309 307
287 288 289 288 288 289 294 297 296 291 290 290 290 291 292 294 293 293 294 297 299 298 302 304 309 308 305 302 305 303 306 312 313 315 312 310 307 311 311 310 310 308 307 306 307
287 288 288 288 288 290 293 292 288 289 290 290 290 290 293 291 292 292 293 296 295 294 292 298 302 303 301 301 303 305 304 306 308 308 307 310 307 309 309 308 308 307 307 305 303
288 290 287 287 288 291 293 290 290 290 289 290 289 290 291 291 291 291 292 294 293 291 291 295 298 301 300 299 300 302 303 304 305 307 310 310 311 312 312 310 306 304 303 302 301
289 290 287 288 289 290 290 289 289 289 289 290 290 290 290 290 290 291 292 292 293 291 291 294 295 298 300 300 302 301 302 304 306 306 310 311 312 305 306 305 304 302 301 300 299
290 291 287 288 291 289 290 289 288 289 289 290 289 289 289 289 290 290 290 290 289 291 290 292 293 296 296 301 298 299 301 303 306 306 306 308 311 304 304 303 303 301 299 298 298
289 289 288 288 289 289 288 288 288 289 289 289 289 289 289 288 288 289 289 289 289 291 290 291 291 293 294 301 296 298 298 302 302 304 307 309 307 303 303 302 301 300 298 297 296
289 290 289 289 288 288 287 287 288 288 288 288 289 288 289 289 289 288 288 289 289 289 290 290 290 290 292 293 293 294 297 298 302 303 304 305 306 305 303 302 300 298 297 295 294
288 288 286 289 288 288 287 287 287 288 288 287 288 288 289 289 289 289 289 289 289 289 289 289 288 289 291 291 291 294 297 297 298 304 303 304 305 307 305 301 297 296 295 293 291
288 287 287 287 287 287 287 287 287 287 287 288 288 288 289 289 289 290 289 288 288 290 289 289 289 289 288 290 293 294 296 297 299 299 303 302 303 300 298 297 295 293 292 290 288
287 287 287 288 288 288 288 287 287 287 287 287 288 289 289 289 288 288 288 288 289 289 289 289 289 289 290 291 292 293 296 297 297 294 295 301 298 296 297 292 291 290 289 287 286
Wind_Speed
9 10 11 11 11 11 11 13 14 14 15 16 18 20 21 23 25 26 29 27 23 22 18 18 16 9 8 9 18 10 9 18 26 29 29 26 15 19 26 28 30 21 25 18 14
13 11 10 10 12 13 14 14 14 14 15 16 18 19 21 23 25 34 33 31 30 25 19 15 12 11 9 8 10 11 14 25 24 25 25 25 24 21 18 18 25 26 25 19 16
16 16 15 15 14 14 16 17 17 17 18 19 19 19 20 20 20 12 8 9 10 14 15 13 13 13 15 16 17 12 22 22 25 32 30 28 23 28 23 26 33 30 29 29 28
19 19 19 19 19 19 20 19 19 20 20 22 23 22 21 13 8 7 9 8 5 6 12 11 12 11 10 16 20 19 25 25 27 31 31 23 30 25 33 34 34 33 30 29 24
22 22 22 23 23 23 23 23 23 22 22 22 23 23 21 9 22 29 26 23 16 13 15 16 18 19 13 9 17 24 23 29 28 28 28 31 28 28 34 31 35 36 34 29 29
23 23 24 24 24 24 23 22 23 25 25 23 22 22 16 15 26 25 19 18 17 17 15 18 10 20 18 19 17 11 14 23 28 27 28 21 25 28 26 27 39 37 34 32 32
24 26 27 28 29 29 27 25 24 24 24 24 24 21 18 33 27 27 25 22 19 17 16 16 18 12 4 15 22 23 21 22 24 25 23 16 27 31 37 36 37 33 33 33 33
27 27 29 30 30 30 27 26 25 24 23 21 22 15 16 22 25 30 29 21 20 17 15 12 14 17 23 17 19 16 19 19 8 16 15 12 30 16 18 30 35 36 35 33 33
29 30 31 31 31 28 26 23 20 20 19 18 13 10 15 19 24 28 21 14 17 16 13 9 9 13 12 16 16 17 21 23 23 15 6 18 28 16 12 13 26 27 28 26 27
31 33 34 34 30 26 25 18 14 11 8 4 7 7 16 8 10 12 16 15 8 11 8 10 10 11 13 15 20 18 25 22 24 17 15 19 31 24 30 23 21 24 26 27 28
32 34 34 32 24 30 29 13 7 3 4 10 6 12 9 10 12 7 12 16 11 14 11 19 9 21 27 27 29 27 28 31 28 14 7 19 29 28 25 29 22 30 32 35 37
31 33 33 30 20 24 22 13 10 9 18 19 26 30 29 33 23 16 13 14 15 21 19 12 24 35 25 24 26 28 30 32 26 22 16 19 33 29 27 27 31 33 36 40 41
30 30 32 25 20 23 16 18 10 12 8 11 5 6 18 22 26 38 30 25 27 25 29 29 35 22 23 24 26 29 29 30 27 18 18 17 32 34 28 31 39 42 44 41 41
29 27 29 28 9 23 14 21 11 6 5 6 9 12 28 39 9 25 19 37 30 32 29 25 40 26 22 27 27 25 28 24 21 12 16 9 18 26 20 22 18 18 29 34 36
29 25 26 26 13 21 24 22 7 3 4 12 10 13 47 29 33 9 22 11 32 30 14 26 21 18 26 35 19 22 8 17 18 19 19 23 9 22 3 10 11 15 24 28 26
29 21 24 21 17 20 21 15 3 2 4 11 18 30 32 27 30 31 32 15 18 16 23 34 20 8 19 17 20 9 10 2 5 10 13 30 18 31 18 24 20 11 8 9 3
25 19 27 19 22 22 17 7 2 5 16 13 22 30 28 25 22 21 24 19 12 8 12 20 29 26 7 10 6 18 12 7 7 6 12 21 16 27 3 6 14 11 5 3 3
21 19 22 20 18 20 14 1 9 10 8 22 21 25 20 21 19 24 23 19 14 21 11 8 10 24 22 26 15 22 21 10 14 14 17 16 11 22 16 16 17 3 7 7 6
15 18 21 17 17 19 7 9 3 8 15 16 21 18 18 22 16 24 20 10 12 18 12 8 10 13 13 12 21 16 19 29 12 11 4 8 14 20 16 15 5 6 1 8 7
13 6 25 19 19 14 8 8 4 11 15 13 17 13 17 18 21 20 15 11 14 18 19 8 17 14 7 5 14 20 6 13 10 9 14 12 20 13 7 9 6 6 8 11 11
8 5 19 15 13 16 8 4 4 14 16 9 14 15 20 20 21 18 9 18 22 24 22 14 7 15 8 5 13 10 11 7 5 12 10 9 9 5 5 7 7 8 9 10 11
8 3 14 17 13 7 7 6 8 11 18 7 10 15 18 20 16 18 21 20 34 23 21 12 7 12 25 24 4 4 11 18 8 10 11 14 11 6 8 9 9 9 10 12 13
4 4 9 15 6 7 10 5 5 9 11 6 10 15 16 17 15 19 20 33 24 21 13 6 8 13 17 8 16 8 21 20 18 17 12 9 13 8 9 9 9 9 12 13 14
4 3 5 6 5 8 9 6 8 11 11 11 16 17 14 20 20 13 24 16 30 24 31 15 8 11 12 19 17 20 19 22 14 10 16 19 21 9 8 9 8 9 12 14 16
6 3 3 5 5 11 9 7 12 10 7 15 13 17 20 19 19 21 23 23 29 24 14 11 14 17 19 25 24 22 21 18 16 15 17 24 23 23 8 9 7 8 11 14 17
4 5 4 14 8 8 5 4 10 11 14 15 13 24 22 19 20 20 18 19 19 20 14 14 14 15 21 23 23 22 19 20 18 18 22 24 23 11 10 10 9 11 12 15 17
7 5 3 6 5 6 3 5 15 20 9 22 21 19 18 18 24 26 27 31 25 21 21 17 11 13 21 19 18 12 8 7 7 11 8 7 11 15 6 10 13 11 13 15 16
Wind_Direction
347 348 344 344 340 333 329 328 330 326 323 321 318 312 307 301 295 289 277 277 278 274 270 258 251 238 218 229 225 240 246 242 246 251 265 268 256 264 271 245 256 254 252 254 242
346 346 338 330 327 325 322 321 321 321 321 317 317 317 313 307 302 289 290 281 272 263 253 233 225 217 221 237 217 215 236 238 248 264 275 279 285 274 258 247 244 244 241 249 235
338 336 330 324 318 314 312 312 312 313 315 314 312 314 316 314 313 282 311 293 272 249 229 225 233 221 232 229 222 232 245 254 250 258 272 282 278 271 268 258 255 249 246 244 243
328 323 320 317 314 312 308 304 303 303 305 308 309 310 313 309 281 284 303 303 287 214 207 201 205 212 234 225 229 255 254 255 257 268 280 276 275 263 259 254 260 262 262 255 234
331 329 325 320 315 311 306 302 299 296 295 296 298 301 306 271 260 278 283 272 260 238 215 208 215 224 243 240 250 246 254 268 265 264 268 273 262 262 258 254 259 259 257 259 250
332 327 322 318 312 308 304 302 296 292 291 292 292 293 282 254 269 274 272 267 250 237 226 220 226 235 271 261 253 269 266 267 266 266 268 262 267 257 252 248 251 255 255 250 246
343 339 334 327 319 313 308 303 296 293 289 285 289 291 260 253 269 269 266 256 245 235 221 226 236 235 258 259 257 266 270 269 259 256 247 269 272 250 252 246 249 252 253 252 251
354 349 345 340 329 321 315 307 297 291 286 278 279 275 260 271 260 253 250 244 238 228 219 227 222 244 253 263 277 260 259 263 269 236 228 193 258 267 283 231 245 250 253 252 252
3 358 357 347 338 331 323 314 301 291 283 278 273 235 266 265 258 257 242 228 231 223 218 223 202 224 235 237 262 240 259 259 261 215 196 203 262 264 262 257 246 247 252 254 252
5 1 2 353 342 342 340 333 317 312 297 262 246 255 251 283 265 255 224 203 198 192 197 207 214 224 216 221 240 245 248 253 258 271 221 242 255 265 273 271 257 261 262 255 248
4 2 4 357 352 358 349 8 356 266 304 239 269 253 320 309 305 258 218 193 192 198 206 196 213 223 220 219 237 249 261 270 271 273 266 262 269 264 264 262 259 254 253 252 252
2 2 4 0 13 15 16 61 40 337 302 287 274 275 281 284 272 258 226 202 202 221 212 196 226 233 233 235 233 240 249 257 267 260 251 266 272 273 267 264 258 255 252 251 250
2 2 2 10 24 25 22 23 348 340 271 314 304 347 13 319 282 280 243 236 241 242 232 225 242 237 233 232 233 233 239 249 252 259 259 261 277 275 266 249 247 251 253 254 250
2 0 3 15 18 3 6 349 345 332 294 308 28 24 353 342 274 328 293 246 246 247 250 246 252 256 243 234 226 239 234 252 260 264 251 224 276 272 280 276 259 248 248 250 251
3 3 8 16 6 356 335 343 326 162 292 18 9 339 340 343 321 319 333 279 249 250 253 234 252 245 234 234 211 237 265 243 243 236 252 252 250 279 286 268 254 254 246 250 256
6 14 7 11 6 0 335 342 106 232 264 353 344 338 340 353 342 354 346 292 276 276 271 267 246 288 264 258 226 228 225 151 245 232 235 244 230 277 259 257 268 288 278 288 248
7 20 14 7 354 356 346 349 233 17 344 346 332 336 331 346 342 352 342 329 305 292 262 274 251 249 240 239 246 204 192 208 214 209 236 247 219 242 135 208 297 284 272 220 297
11 24 13 22 19 10 5 335 56 11 353 329 330 324 340 3 346 347 337 330 24 8 316 298 294 228 216 226 214 201 200 207 224 228 246 234 220 237 238 260 271 307 281 290 280
32 36 19 23 17 25 19 55 43 350 339 328 325 338 336 348 345 345 331 3 27 22 4 300 281 335 332 279 239 205 223 230 280 281 266 259 241 268 278 258 281 30 47 71 57
16 36 18 13 23 26 43 85 7 355 338 330 334 345 339 338 345 347 317 20 5 9 358 298 306 289 317 270 248 252 310 225 226 235 238 246 259 264 234 245 70 38 44 44 38
28 65 10 16 26 47 53 45 319 349 354 333 329 333 339 339 326 326 315 334 357 340 344 306 312 300 296 223 247 205 238 245 255 239 247 248 241 9 19 41 77 64 50 41 40
33 63 2 22 46 29 24 342 327 344 350 339 325 342 339 332 332 321 324 318 331 328 331 335 279 315 294 296 331 311 274 243 250 236 241 256 258 71 83 76 84 78 65 53 49
48 1 359 24 38 18 0 328 335 321 336 323 325 327 322 328 325 320 313 315 312 335 329 332 341 324 329 150 27 11 323 328 312 272 273 246 242 115 110 96 76 77 63 50 42
41 8 357 36 35 350 352 329 328 320 324 323 310 314 303 313 314 303 306 307 319 311 309 330 296 298 277 294 297 297 299 299 295 282 265 253 264 194 158 130 96 74 65 51 41
32 49 7 326 349 336 321 300 315 325 326 329 314 309 315 310 306 297 305 311 311 312 305 316 295 290 280 287 291 277 284 299 289 281 251 259 263 273 198 117 77 68 64 53 37
37 354 311 291 288 308 317 291 305 320 323 307 315 311 309 299 295 308 317 305 300 303 291 295 286 295 287 287 284 282 279 283 279 278 263 259 259 82 67 67 45 42 49 54 39
1 342 306 289 298 297 272 287 303 312 302 310 311 309 310 314 314 302 294 288 281 284 290 293 282 295 287 298 299 282 298 313 317 18 329 336 354 341 96 59 35 23 34 42 38